Вернуться в каталог

STARLINK-5743

АктивенСвязьVLEO
NORAD 55597·PAYLOAD·🇺🇸 United States

Запущен Feb 12, 2023 с Cape Canaveral Space Force Station

Loading…

Ближайшие Пролёты (ближайшие 24 часа)

TLE

СвежийSource: CelesTrak SupGP

Эпоха: Sep 15, 2026, 02:14 UTC

1 55597C 23020AE  26258.09354167 -.00016754  00000+0 -60686-3 0  2587
2 55597  43.0025   4.2966 0001713 267.9691 309.9237 15.27585537    18

Отслеживайте STARLINK-5743 в реальном времени с AllMySat

Download on the App Store